TimeCST,TemperatureF,Dew PointF,Humidity,Sea Level PressureIn,VisibilityMPH,Wind Direction,Wind SpeedMPH,Gust SpeedMPH,PrecipitationIn,Events,Conditions,WindDirDegrees,DateUTC
12:15 AM,1.4,1.4,100,29.69,10.0,WNW,6.9,-,N/A,,Clear,290,2012-12-11 06:15:00
12:35 AM,1.4,-4.0,78,29.69,10.0,NW,6.9,-,N/A,,Clear,310,2012-12-11 06:35:00
12:55 AM,1.4,-5.8,72,29.70,10.0,NW,10.4,-,N/A,,Clear,320,2012-12-11 06:55:00
1:15 AM,1.4,-5.8,72,29.70,10.0,NW,9.2,-,N/A,,Clear,320,2012-12-11 07:15:00
1:35 AM,1.4,-5.8,72,29.70,10.0,NW,8.1,-,N/A,,Clear,310,2012-12-11 07:35:00
1:55 AM,-0.4,-4.0,85,29.71,10.0,NW,9.2,-,N/A,,Clear,320,2012-12-11 07:55:00
2:15 AM,-0.4,-7.6,72,29.71,10.0,NNW,9.2,-,N/A,,Clear,330,2012-12-11 08:15:00
2:35 AM,-0.4,-4.0,85,29.72,10.0,NNW,6.9,-,N/A,,Clear,340,2012-12-11 08:35:00
2:55 AM,-0.4,-2.2,92,29.73,10.0,NNW,6.9,-,N/A,,Mostly Cloudy,330,2012-12-11 08:55:00
3:15 AM,1.4,-4.0,78,29.74,9.0,NNW,5.8,-,N/A,,Overcast,340,2012-12-11 09:15:00
3:35 AM,3.2,-0.4,85,29.73,10.0,North,8.1,-,N/A,,Overcast,360,2012-12-11 09:35:00
3:55 AM,3.2,-0.4,85,29.73,10.0,North,8.1,-,N/A,,Overcast,350,2012-12-11 09:55:00
4:15 AM,3.2,-0.4,85,29.73,10.0,NNW,11.5,-,N/A,,Overcast,340,2012-12-11 10:15:00
4:35 AM,3.2,-0.4,85,29.74,10.0,North,9.2,-,N/A,,Overcast,350,2012-12-11 10:35:00
4:55 AM,3.2,-0.4,85,29.75,7.0,North,9.2,-,N/A,,Overcast,350,2012-12-11 10:55:00
5:15 AM,5.0,-0.4,78,29.76,5.0,North,9.2,-,N/A,,Overcast,350,2012-12-11 11:15:00
5:35 AM,5.0,-0.4,78,29.76,5.0,NNW,9.2,-,N/A,,Overcast,340,2012-12-11 11:35:00
5:55 AM,3.2,-0.4,85,29.76,5.0,North,8.1,-,N/A,,Overcast,360,2012-12-11 11:55:00
6:15 AM,3.2,-0.4,85,29.76,6.0,North,8.1,-,N/A,,Mostly Cloudy,350,2012-12-11 12:15:00
6:35 AM,3.2,-2.2,78,29.77,10.0,North,5.8,-,N/A,,Mostly Cloudy,350,2012-12-11 12:35:00
6:55 AM,1.4,-4.0,78,29.78,9.0,NNW,3.5,-,N/A,,Mostly Cloudy,340,2012-12-11 12:55:00
7:15 AM,-0.4,-5.8,78,29.78,10.0,North,6.9,-,N/A,,Scattered Clouds,360,2012-12-11 13:15:00
7:35 AM,-0.4,-5.8,78,29.78,10.0,North,6.9,-,N/A,,Clear,360,2012-12-11 13:35:00
7:55 AM,-2.2,-7.6,78,29.79,10.0,North,6.9,-,N/A,,Clear,350,2012-12-11 13:55:00
8:15 AM,-4.0,-7.6,85,29.80,10.0,NNW,8.1,-,N/A,,Clear,340,2012-12-11 14:15:00
8:35 AM,-2.2,-7.6,78,29.80,10.0,North,8.1,-,N/A,,Mostly Cloudy,350,2012-12-11 14:35:00
8:55 AM,-2.2,-11.2,66,29.80,10.0,North,6.9,-,N/A,,Overcast,10,2012-12-11 14:55:00
9:15 AM,-2.2,-5.8,85,29.81,10.0,North,5.8,-,N/A,,Overcast,360,2012-12-11 15:15:00
9:35 AM,-2.2,-7.6,78,29.81,10.0,North,4.6,-,N/A,,Overcast,350,2012-12-11 15:35:00
9:55 AM,-2.2,-7.6,78,29.81,10.0,North,5.8,-,N/A,,Overcast,360,2012-12-11 15:55:00
10:15 AM,-0.4,-5.8,78,29.81,5.0,North,5.8,-,N/A,,Overcast,10,2012-12-11 16:15:00
10:35 AM,-0.4,-5.8,78,29.82,4.0,North,4.6,-,N/A,,Overcast,10,2012-12-11 16:35:00
10:55 AM,-0.4,-7.6,72,29.82,8.0,North,5.8,-,N/A,,Overcast,350,2012-12-11 16:55:00
11:15 AM,-0.4,-5.8,78,29.82,9.0,NNW,4.6,-,N/A,,Mostly Cloudy,330,2012-12-11 17:15:00
11:35 AM,-0.4,-5.8,78,29.82,10.0,NW,3.5,-,N/A,,Scattered Clouds,310,2012-12-11 17:35:00
11:55 AM,-0.4,-5.8,78,29.82,10.0,Calm,Calm,-,N/A,,Clear,0,2012-12-11 17:55:00
12:15 PM,1.4,-4.0,78,29.82,10.0,Calm,Calm,-,N/A,,Clear,0,2012-12-11 18:15:00
12:35 PM,1.4,-4.0,78,29.81,8.0,Calm,Calm,-,N/A,,Clear,0,2012-12-11 18:35:00
12:55 PM,3.2,-4.0,72,29.81,10.0,West,3.5,-,N/A,,Clear,280,2012-12-11 18:55:00
1:15 PM,3.2,-4.0,72,29.81,10.0,Calm,Calm,-,N/A,,Clear,0,2012-12-11 19:15:00
1:35 PM,3.2,-2.2,78,29.81,10.0,Calm,Calm,-,N/A,,Clear,0,2012-12-11 19:35:00
1:55 PM,3.2,-4.0,72,29.81,10.0,Calm,Calm,-,N/A,,Clear,0,2012-12-11 19:55:00
2:15 PM,3.2,-2.2,78,29.81,10.0,West,3.5,-,N/A,,Clear,280,2012-12-11 20:15:00
2:35 PM,3.2,-4.0,72,29.80,10.0,Calm,Calm,-,N/A,,Clear,0,2012-12-11 20:35:00
2:55 PM,6.8,-2.2,67,29.79,10.0,Calm,Calm,-,N/A,,Clear,0,2012-12-11 20:55:00
3:15 PM,3.2,-4.0,72,29.79,10.0,Calm,Calm,-,N/A,,Clear,0,2012-12-11 21:15:00
3:35 PM,3.2,-4.0,72,29.79,10.0,Calm,Calm,-,N/A,,Clear,0,2012-12-11 21:35:00
3:55 PM,3.2,-2.2,78,29.80,10.0,SSE,5.8,-,N/A,,Clear,150,2012-12-11 21:55:00
4:15 PM,3.2,-5.8,66,29.80,10.0,SE,4.6,-,N/A,,Clear,130,2012-12-11 22:15:00
4:35 PM,1.4,-2.2,85,29.79,10.0,ESE,4.6,-,N/A,,Clear,120,2012-12-11 22:35:00
4:55 PM,1.4,-4.0,78,29.79,10.0,ESE,5.8,-,N/A,,Clear,120,2012-12-11 22:55:00
5:15 PM,-0.4,-5.8,78,29.79,10.0,ESE,4.6,-,N/A,,Clear,120,2012-12-11 23:15:00
5:35 PM,1.4,-2.2,85,29.80,10.0,ESE,3.5,-,N/A,,Partly Cloudy,120,2012-12-11 23:35:00
5:55 PM,1.4,-2.2,85,29.80,10.0,ESE,4.6,-,N/A,,Mostly Cloudy,120,2012-12-11 23:55:00
6:15 PM,3.2,-2.2,78,29.80,10.0,ESE,8.1,-,N/A,,Overcast,110,2012-12-12 00:15:00
6:35 PM,3.2,-0.4,85,29.80,10.0,ESE,8.1,-,N/A,,Overcast,110,2012-12-12 00:35:00
6:55 PM,3.2,-0.4,85,29.80,10.0,ESE,8.1,-,N/A,,Overcast,120,2012-12-12 00:55:00
7:15 PM,6.8,-0.4,72,29.78,10.0,ESE,11.5,-,N/A,,Overcast,120,2012-12-12 01:15:00
7:35 PM,6.8,-0.4,72,29.77,10.0,ESE,11.5,-,N/A,,Overcast,120,2012-12-12 01:35:00
7:55 PM,6.8,1.4,79,29.77,10.0,ESE,13.8,-,N/A,,Overcast,120,2012-12-12 01:55:00
8:15 PM,6.8,1.4,79,29.76,10.0,SE,15.0,19.6,N/A,,Mostly Cloudy,130,2012-12-12 02:15:00
8:35 PM,6.8,1.4,79,29.76,10.0,SE,15.0,-,N/A,,Mostly Cloudy,130,2012-12-12 02:35:00
8:55 PM,6.8,1.4,79,29.76,7.0,SE,16.1,19.6,N/A,,Mostly Cloudy,130,2012-12-12 02:55:00
9:15 PM,6.8,3.2,85,29.75,6.0,SE,18.4,-,N/A,,Mostly Cloudy,130,2012-12-12 03:15:00
9:35 PM,6.8,1.4,79,29.76,7.0,SE,15.0,-,N/A,,Mostly Cloudy,140,2012-12-12 03:35:00
9:55 PM,6.8,1.4,79,29.74,6.0,SE,18.4,23.0,N/A,,Overcast,130,2012-12-12 03:55:00
10:15 PM,6.8,1.4,79,29.74,3.0,SE,19.6,24.2,N/A,,Overcast,130,2012-12-12 04:15:00
10:35 PM,6.8,1.4,79,29.73,3.0,SE,19.6,24.2,N/A,,Overcast,130,2012-12-12 04:35:00
10:55 PM,6.8,1.4,79,29.71,3.0,SE,19.6,25.3,N/A,,Overcast,130,2012-12-12 04:55:00
11:15 PM,6.8,1.4,79,29.72,4.0,SE,17.3,-,N/A,,Overcast,130,2012-12-12 05:15:00
11:35 PM,6.8,1.4,79,29.72,2.5,SE,18.4,23.0,N/A,,Overcast,130,2012-12-12 05:35:00
11:55 PM,6.8,1.4,79,29.70,3.0,SE,23.0,-,N/A,,Overcast,130,2012-12-12 05:55:00